This demonstration page uses our WeatherBlox Daily Observations layout. Learn more.

Left ArrowRight Arrow

44.89941, -97.11507

Hourly Observations for January 21, 2021

Temp ( °F °C ) Dew Point ( °F °C ) Humidity (%) Winds ( mph kmh ) Pressure ( in mb ) Visibility ( mi km ) Precip ( " mm )
12:53 am 00:53 Clear 29 -1.7 20 -6.7 69 69 W 18 30 29.77 1008 10 16 0.00 0.00
1:53 am 01:53 Clear 29 -1.7 19 -7.2 66 66 W 16 26 29.78 1009 10 16 0.00 0.00
2:53 am 02:53 Clear 29 -1.7 18 -7.8 63 63 W 18 30 29.79 1009 10 16 0.00 0.00
3:53 am 03:53 Clear 29 -1.7 18 -7.8 63 63 W 15 24 29.79 1009 10 16 0.00 0.00
4:53 am 04:53 Clear 29 -1.7 18 -7.8 63 63 W 18 30 29.81 1009 10 16 0.00 0.00
5:53 am 05:53 Clear 28 -2.2 18 -7.8 66 66 W 16 26 29.82 1010 10 16 0.00 0.00
6:53 am 06:53 Clear 28 -2.2 18 -7.8 66 66 WNW 20 31 29.83 1010 10 16 0.00 0.00
7:53 am 07:53 Clear 27 -2.8 18 -7.8 69 69 WNW 18 30 29.85 1011 10 16 0.00 0.00
8:53 am 08:53 Sunny 26 -3.3 18 -7.8 71 71 WNW 18 30 29.88 1012 10 16 0.00 0.00
9:53 am 09:53 Mostly Cloudy 27 -2.8 19 -7.2 72 72 WNW 18 30 29.91 1013 10 16 0.00 0.00
10:53 am 10:53 Cloudy 28 -2.2 20 -6.7 72 72 WNW 16 26 29.93 1014 10 16 0.00 0.00
11:53 am 11:53 Partly Cloudy 30 -1.1 21 -6.1 69 69 NW 25 41 29.94 1014 10 16 0.00 0.00
12:14 pm 12:14 Mostly Cloudy 29 -1.7 20 -6.7 69 69 NW 25 41 29.97 1015 10 16 0.00 0.00
12:42 pm 12:42 Mostly Cloudy 30 -1.1 21 -6.1 69 69 NW 22 35 29.97 1015 10 16 0.00 0.00
12:53 pm 12:53 Cloudy 29 -1.7 21 -6.1 72 72 NNW 22 35 29.95 1014 10 16 0.00 0.00
1:15 pm 13:15 Cloudy 28 -2.2 21 -6.1 75 75 NNW 24 39 30.00 1016 10 16 0.00 0.00
1:53 pm 13:53 Cloudy 27 -2.8 21 -6.1 78 78 NNW 16 26 29.97 1015 10 16 0.00 0.00
2:53 pm 14:53 Cloudy 24 -4.4 19 -7.2 81 81 N 17 28 30.01 1016 10 16 0.00 0.00
3:06 pm 15:06 Cloudy 22 -5.6 18 -7.8 85 85 NNW 22 35 30.07 1018 10 16 0.00 0.00
3:32 pm 15:32 Cloudy 21 -6.1 15 -9.4 78 78 NNW 18 30 30.09 1019 10 16 0.00 0.00
3:53 pm 15:53 Cloudy 20 -6.7 14 -10 78 78 NNW 17 28 30.05 1018 9 14 0.00 0.00
4:53 pm 16:53 Cloudy 18 -7.8 11 -11.7 74 74 NNW 20 31 30.08 1019 10 16 0.00 0.00
5:02 pm 17:02 Cloudy 18 -7.8 10 -12.2 71 71 NNW 23 37 30.14 1021 10 16 0.00 0.00
5:53 pm 17:53 Cloudy 17 -8.3 10 -12.2 74 74 N 17 28 30.10 1019 10 16 0.00 0.00
6:53 pm 18:53 Partly Cloudy 15 -9.4 9 -12.8 77 77 NNW 15 24 30.13 1020 10 16 0.00 0.00
7:53 pm 19:53 Clear 13 -10.6 7 -13.9 77 77 N 12 19 30.15 1021 10 16 0.00 0.00
8:53 pm 20:53 Clear 10 -12.2 5 -15 80 80 N 13 20 30.18 1022 10 16 0.00 0.00
9:53 pm 21:53 Clear 9 -12.8 3 -16.1 77 77 NNW 10 17 30.20 1023 10 16 0.00 0.00
10:53 pm 22:53 Clear 8 -13.3 2 -16.7 76 76 NNW 12 19 30.21 1023 10 16 0.00 0.00
11:53 pm 23:53 Clear 7 -13.9 2 -16.7 80 80 NNW 8 13 30.22 1023 10 16 0.00 0.00

Powered by AerisWeather